Deer Park, WA

2:24 AM PDT on June 25, 2017 (GMT -0700)
Deer Park

Weather History for KDEW - January, 2014

Change the Weather History Date:

Wednesday, January 29, 2014

  Actual Average Record
Temperature  
Mean Temperature 22 °F 29 °F  
Max Temperature 30 °F 36 °F 46 °F (2012)
Min Temperature 13 °F 22 °F 3 °F (2002)
Degree Days  
Heating Degree Days 43 36  
Month to date heating degree days 1028 1097  
Since 1 July heating degree days 4239 4324  
Cooling Degree Days 0 0  
Month to date cooling degree days 0 0  
Year to date cooling degree days 0 0  
Moisture  
Dew Point 25 °F    
Average Humidity 93    
Maximum Humidity 100    
Minimum Humidity 85    
Precipitation  
Precipitation 0.40 in 0.06 in 0.43 in (2008)
Month to date precipitation 1.47 2.50  
Year to date precipitation 1.47 2.50  
Sea Level Pressure  
Sea Level Pressure 29.74 in    
Wind  
Wind Speed 5 mph (NNW)    
Max Wind Speed 15 mph    
Max Gust Speed 16 mph    
Visibility 3 miles    
Events Fog , Snow    
T = Trace of Precipitation, MM = Missing Value Source: NWS Daily Summary

Daily Weather History Graph

Daily Weather History Graph

Search for Another Location

Airport or City:

Trip Planner

Search our weather history database for the weather conditions in past years. The results will help you decide how hot, cold, wet, or windy it might be!

Date:

Astronomy

Jan. 29, 2014 Rise Set
Actual Time 7:20 AM PST 4:45 PM PST
Civil Twilight 6:47 AM PST 5:18 PM PST
Nautical Twilight 6:09 AM PST 5:56 PM PST
Astronomical Twilight 5:33 AM PST 6:32 PM PST
Moon 6:02 AM PST (1/29) 3:51 PM PST (1/29)
Length of Visible Light 10h 31m
Length of Day
9h 24m
Waning Crescent, 2% of the Moon is Illuminated
Jan 29
Waning Crescent
Jan 30
New
Feb 6
First Quarter
Feb 14
Full
Feb 22
Last Quarter

Hourly Weather History & Observations

Time (PST) Temp. Windchill Dew Point Humidity Pressure Visibility Wind Dir Wind Speed Gust Speed Precip Events Conditions
12:53 AM 28.0 °F 24.2 °F 26.1 °F 92% 30.10 in 10.0 mi North 3.5 mph - N/A   Overcast
1:47 AM 28.4 °F 23.3 °F 24.8 °F 86% 29.99 in 1.8 mi NNE 4.6 mph - 0.00 in Snow Light Snow
1:48 AM 28.0 °F 21.7 °F 25.0 °F 88% 30.06 in 1.8 mi NNE 5.8 mph - 0.00 in Snow Light Snow
2:53 AM 28.0 °F 20.8 °F 26.1 °F 92% 30.02 in 1.8 mi North 6.9 mph - 0.02 in Snow Light Snow
3:32 AM 28.0 °F 22.8 °F 26.1 °F 92% 29.90 in 0.8 mi NNE 4.6 mph - 0.03 in Snow Light Snow
3:53 AM 28.0 °F 20.8 °F 26.1 °F 92% 29.96 in 1.0 mi North 6.9 mph - 0.04 in Snow Light Snow
4:02 AM 28.0 °F 20.8 °F 26.1 °F 92% 29.87 in 1.2 mi NNE 6.9 mph - 0.01 in Snow Light Snow
4:53 AM 28.0 °F 20.8 °F 26.1 °F 92% 29.91 in 1.0 mi NNE 6.9 mph - 0.04 in Snow Light Snow
5:25 AM 28.0 °F 20.0 °F 26.1 °F 92% 29.81 in 1.0 mi NNE 8.1 mph - 0.03 in Snow Light Snow
5:53 AM 28.9 °F 22.8 °F 26.1 °F 89% 29.88 in 1.0 mi North 5.8 mph - 0.05 in Snow Light Snow
6:02 AM 28.9 °F 22.8 °F 26.1 °F 89% 29.80 in 1.0 mi North 5.8 mph - 0.01 in Snow Light Snow
6:19 AM 28.9 °F 23.9 °F 26.1 °F 89% 29.79 in 1.0 mi North 4.6 mph - 0.02 in Snow Light Snow
6:27 AM 28.0 °F 22.8 °F 27.0 °F 96% 29.80 in 0.8 mi North 4.6 mph - 0.03 in Snow Light Snow
6:43 AM 28.9 °F 25.2 °F 27.0 °F 92% 29.78 in 1.0 mi North 3.5 mph - 0.04 in Snow Light Snow
6:53 AM 28.9 °F 23.9 °F 27.0 °F 92% 29.84 in 0.8 mi North 4.6 mph - 0.05 in Snow Light Snow
7:03 AM 28.9 °F 25.2 °F 27.0 °F 92% 29.77 in 1.0 mi North 3.5 mph - 0.01 in Snow Light Snow
7:14 AM 28.9 °F 23.9 °F 27.0 °F 92% 29.76 in 1.2 mi NNW 4.6 mph - 0.01 in Snow Light Snow
7:37 AM 28.9 °F 25.2 °F 27.0 °F 92% 29.76 in 2.0 mi North 3.5 mph - 0.02 in Snow Light Snow
7:48 AM 28.4 °F - 26.6 °F 93% 29.76 in 1.0 mi Calm Calm - 0.02 in Snow Light Snow
7:53 AM 28.9 °F - 27.0 °F 92% 29.82 in 0.8 mi Calm Calm - 0.02 in Snow Light Snow
8:17 AM 28.9 °F - 26.1 °F 89% 29.74 in 0.5 mi Calm Calm - 0.02 in Fog , Snow Snow
8:46 AM 28.0 °F 24.2 °F 27.0 °F 96% 29.75 in 1.0 mi WSW 3.5 mph - 0.03 in Snow Light Snow
8:53 AM 28.0 °F - 27.0 °F 96% 29.81 in 1.8 mi Calm Calm - 0.03 in Snow Light Snow
9:26 AM 28.9 °F - 26.1 °F 89% 29.75 in 2.0 mi North - - 0.00 in Snow Light Snow
9:35 AM 28.9 °F 25.2 °F 27.0 °F 92% 29.76 in 6.0 mi WSW 3.5 mph - 0.00 in   Overcast
9:53 AM 28.9 °F 25.2 °F 27.0 °F 92% 29.81 in 9.0 mi SSE 3.5 mph - 0.00 in   Overcast
10:17 AM 28.9 °F 22.8 °F 27.0 °F 92% 29.75 in 7.0 mi South 5.8 mph - N/A   Overcast
10:41 AM 28.9 °F 21.9 °F 27.0 °F 92% 29.74 in 10.0 mi South 6.9 mph - N/A   Overcast
10:53 AM 28.9 °F 21.1 °F 27.0 °F 92% 29.80 in 10.0 mi South 8.1 mph - N/A   Overcast
11:23 AM 28.9 °F 19.8 °F 27.0 °F 92% 29.73 in 8.0 mi South 10.4 mph - N/A   Overcast
11:34 AM 28.9 °F 18.6 °F 27.0 °F 92% 29.73 in 5.0 mi South 12.7 mph - N/A   Overcast
11:53 AM 30.0 °F 20.5 °F 27.0 °F 88% 29.78 in 6.0 mi South 11.5 mph - N/A   Overcast
12:53 PM 28.9 °F 18.6 °F 27.0 °F 92% 29.76 in 5.0 mi South 12.7 mph - N/A   Overcast
1:43 PM 28.9 °F 20.4 °F 27.0 °F 92% 29.68 in 10.0 mi South 9.2 mph - N/A   Overcast
1:53 PM 30.0 °F 22.4 °F 27.0 °F 88% 29.75 in 10.0 mi SSW 8.1 mph - N/A   Overcast
2:53 PM 28.9 °F 19.8 °F 27.0 °F 92% 29.73 in 10.0 mi South 10.4 mph - N/A   Overcast
3:21 PM 28.9 °F 21.1 °F 27.0 °F 92% 29.67 in 1.8 mi South 8.1 mph - 0.01 in Snow Light Snow
3:32 PM 28.9 °F 21.9 °F 27.0 °F 92% 29.66 in 0.5 mi South 6.9 mph - 0.02 in Fog , Snow Snow
3:51 PM 28.4 °F 24.6 °F 28.4 °F 100% 29.66 in 0.5 mi South 3.5 mph - 0.04 in Fog , Snow Snow
3:53 PM 28.9 °F - 28.0 °F 96% 29.72 in 0.5 mi Calm Calm - 0.04 in Fog , Snow Snow
3:59 PM 28.9 °F - 27.0 °F 92% 29.65 in 1.0 mi Calm Calm - 0.00 in Snow Light Snow
4:09 PM 28.9 °F - 27.0 °F 92% 29.65 in 0.5 mi Calm Calm - 0.01 in Fog , Snow Snow
4:19 PM 28.9 °F - 27.0 °F 92% 29.65 in 0.8 mi Calm Calm - 0.02 in Snow Light Snow
4:30 PM 28.9 °F - 27.0 °F 92% 29.65 in 2.0 mi Calm Calm - 0.02 in Snow Light Snow
4:42 PM 28.9 °F - 27.0 °F 92% 29.65 in 1.2 mi Calm Calm - 0.03 in Snow Light Snow
4:53 PM 28.9 °F - 27.0 °F 92% 29.71 in 1.0 mi Calm Calm - 0.03 in Snow Light Snow
5:00 PM 28.9 °F - 27.0 °F 92% 29.65 in 0.8 mi Calm Calm - 0.01 in Snow Light Snow
5:16 PM 28.9 °F - 27.0 °F 92% 29.64 in 0.8 mi Calm Calm - 0.03 in Snow Light Snow
5:34 PM 28.9 °F - 27.0 °F 92% 29.64 in 0.8 mi Calm Calm - 0.04 in Snow Light Snow
5:53 PM 28.9 °F - 27.0 °F 92% 29.70 in 1.0 mi Calm Calm - 0.05 in Snow Light Snow
6:03 PM 28.9 °F - 27.0 °F 92% 29.64 in 0.8 mi Calm Calm - 0.01 in Snow Light Snow
6:11 PM 28.9 °F - 27.0 °F 92% 29.64 in 1.0 mi Calm Calm - 0.01 in Snow Light Snow
6:50 PM 28.4 °F - 26.6 °F 93% 29.63 in 1.8 mi Calm Calm - 0.03 in Snow Light Snow
6:53 PM 28.0 °F - 27.0 °F 96% 29.69 in 2.0 mi Calm Calm - 0.03 in Snow Light Snow
7:06 PM 27.0 °F 23.0 °F 26.1 °F 96% 29.63 in 4.0 mi NW 3.5 mph - 0.00 in Snow Light Snow
7:20 PM 26.1 °F 20.5 °F 24.1 °F 92% 29.63 in 6.0 mi NW 4.6 mph - 0.00 in   Overcast
7:51 PM 24.8 °F 20.5 °F 23.0 °F 93% 29.63 in 1.5 mi WNW 3.5 mph - 0.00 in   Overcast
7:53 PM 24.1 °F 19.7 °F 21.9 °F 91% 29.70 in 1.0 mi WNW 3.5 mph - 0.00 in   Mostly Cloudy
8:00 PM 24.1 °F - 21.9 °F 91% 29.63 in 0.5 mi Calm Calm - N/A Fog Light Freezing Fog
8:08 PM 23.0 °F - 21.9 °F 96% 29.63 in 0.2 mi Calm Calm - N/A Fog Light Freezing Fog
8:51 PM 19.4 °F - 19.4 °F 100% 29.64 in 0.5 mi Calm Calm - N/A Fog Light Freezing Fog
8:53 PM 19.0 °F - 19.0 °F 100% 29.72 in 0.2 mi Calm Calm - N/A Fog Light Freezing Fog
9:24 PM 19.0 °F 10.0 °F 18.0 °F 96% 29.65 in 1.5 mi NNW 6.9 mph - N/A   Scattered Clouds
9:26 PM 19.0 °F 10.0 °F 17.1 °F 92% 29.65 in 3.0 mi NNW 6.9 mph - N/A   Partly Cloudy
9:53 PM 21.9 °F 17.2 °F 21.0 °F 96% 29.73 in 10.0 mi North 3.5 mph - N/A   Clear
10:47 PM 19.4 °F - 17.6 °F 93% 29.67 in 1.8 mi Calm Calm - N/A   Partly Cloudy
10:50 PM 17.6 °F 10.7 °F 17.6 °F 100% 29.66 in 0.8 mi East 4.6 mph - N/A   Partly Cloudy
10:53 PM 17.1 °F 10.0 °F 17.1 °F 100% 29.75 in 0.5 mi East 4.6 mph - N/A Fog Light Freezing Fog
11:31 PM 14.0 °F 6.5 °F 12.0 °F 92% 29.69 in 3.0 mi WNW 4.6 mph - N/A   Mostly Cloudy
11:38 PM 16.0 °F - 12.0 °F 84% 29.69 in 7.0 mi Calm Calm - N/A   Scattered Clouds
11:49 PM 19.4 °F - 17.6 °F 93% 29.69 in 2.0 mi Calm Calm - N/A   Clear
11:53 PM 19.0 °F - 17.1 °F 92% 29.76 in 1.0 mi Calm Calm - N/A   Mist